Time,TemperatureF,DewpointF,PressureIn,WindDirection,WindDirectionDegrees,WindSpeedMPH,WindSpeedGustMPH,Humidity,HourlyPrecipIn,Conditions,Clouds,dailyrainin,SoftwareType,DateUTC
2013-04-22 00:01:00,40.7,29.8,30.74,SE,135,0.0,0.0,65,0.00,,,0.00,WUHU216HW,2013-04-22 04:01:00,
2013-04-22 00:06:00,40.7,30.2,30.75,NE,45,0.0,0.0,66,0.00,,,0.00,WUHU216HW,2013-04-22 04:06:00,
2013-04-22 00:11:00,40.7,30.2,30.75,NE,45,0.0,0.0,66,0.00,,,0.00,WUHU216HW,2013-04-22 04:11:00,
2013-04-22 00:16:00,40.5,30.0,30.75,NE,45,0.0,0.2,66,0.00,,,0.00,WUHU216HW,2013-04-22 04:16:00,
2013-04-22 00:21:00,40.5,30.3,30.75,ESE,113,0.2,0.2,67,0.00,,,0.00,WUHU216HW,2013-04-22 04:21:00,
2013-04-22 00:27:00,40.5,30.3,30.75,ESE,113,0.0,0.4,67,0.00,,,0.00,WUHU216HW,2013-04-22 04:27:00,
2013-04-22 00:32:00,40.5,30.3,30.75,ESE,113,0.0,0.4,67,0.00,,,0.00,WUHU216HW,2013-04-22 04:32:00,
2013-04-22 00:37:00,40.5,30.3,30.75,ESE,113,0.0,0.0,67,0.00,,,0.00,WUHU216HW,2013-04-22 04:37:00,
2013-04-22 00:42:00,40.5,30.3,30.75,ESE,113,0.0,0.0,67,0.00,,,0.00,WUHU216HW,2013-04-22 04:42:00,
2013-04-22 00:48:00,40.7,30.5,30.75,ESE,113,0.0,0.0,67,0.00,,,0.00,WUHU216HW,2013-04-22 04:48:00,
2013-04-22 00:53:00,40.7,30.5,30.75,ESE,113,0.0,0.0,67,0.00,,,0.00,WUHU216HW,2013-04-22 04:53:00,
2013-04-22 01:00:00,40.7,30.5,30.75,ESE,113,0.0,0.0,67,0.00,,,0.00,WUHU216HW,2013-04-22 05:00:00,
2013-04-22 01:05:00,40.5,30.3,30.75,ESE,113,0.0,0.0,67,0.00,,,0.00,WUHU216HW,2013-04-22 05:05:00,
2013-04-22 01:10:00,40.5,30.3,30.75,ESE,113,0.0,0.0,67,0.00,,,0.00,WUHU216HW,2013-04-22 05:10:00,
2013-04-22 01:15:00,40.5,30.3,30.75,ESE,113,0.0,0.0,67,0.00,,,0.00,WUHU216HW,2013-04-22 05:15:00,
2013-04-22 01:20:00,40.3,30.2,30.75,ESE,113,0.0,0.0,67,0.00,,,0.00,WUHU216HW,2013-04-22 05:20:00,
2013-04-22 01:25:00,40.3,30.2,30.75,ESE,113,0.0,0.4,67,0.00,,,0.00,WUHU216HW,2013-04-22 05:25:00,
2013-04-22 01:30:00,40.1,30.0,30.75,NE,45,0.7,1.3,67,0.00,,,0.00,WUHU216HW,2013-04-22 05:30:00,
2013-04-22 01:35:00,40.1,30.0,30.75,ESE,113,0.4,2.2,67,0.00,,,0.00,WUHU216HW,2013-04-22 05:35:00,
2013-04-22 01:40:00,40.3,30.2,30.75,ESE,113,0.4,2.2,67,0.00,,,0.00,WUHU216HW,2013-04-22 05:40:00,
2013-04-22 01:45:00,40.7,30.5,30.74,SSE,158,0.4,1.1,67,0.00,,,0.00,WUHU216HW,2013-04-22 05:45:00,
2013-04-22 01:50:00,40.9,30.7,30.74,ENE,68,4.7,4.7,67,0.00,,,0.00,WUHU216HW,2013-04-22 05:50:00,
2013-04-22 01:55:00,41.0,30.9,30.74,East,90,1.8,4.7,67,0.00,,,0.00,WUHU216HW,2013-04-22 05:55:00,
2013-04-22 02:00:00,41.4,31.2,30.74,South,180,0.4,2.7,67,0.00,,,0.00,WUHU216HW,2013-04-22 06:00:00,
2013-04-22 02:05:00,41.6,31.4,30.73,SE,135,3.4,3.4,67,0.00,,,0.00,WUHU216HW,2013-04-22 06:05:00,
2013-04-22 02:10:00,41.8,31.6,30.73,East,90,3.1,4.7,67,0.00,,,0.00,WUHU216HW,2013-04-22 06:10:00,
2013-04-22 02:15:00,41.8,31.6,30.73,East,90,1.3,4.7,67,0.00,,,0.00,WUHU216HW,2013-04-22 06:15:00,
2013-04-22 02:20:00,41.9,31.8,30.73,SE,135,1.1,4.3,67,0.00,,,0.00,WUHU216HW,2013-04-22 06:20:00,
2013-04-22 02:25:00,42.1,32.8,30.73,ESE,113,2.9,3.8,69,0.00,,,0.00,WUHU216HW,2013-04-22 06:25:00,
2013-04-22 02:30:00,42.1,32.8,30.73,ESE,113,1.6,3.6,69,0.00,,,0.00,WUHU216HW,2013-04-22 06:30:00,
2013-04-22 02:35:00,42.1,32.8,30.73,SE,135,1.1,3.6,69,0.00,,,0.00,WUHU216HW,2013-04-22 06:35:00,
2013-04-22 02:40:00,42.1,32.8,30.73,SE,135,1.6,2.5,69,0.00,,,0.00,WUHU216HW,2013-04-22 06:40:00,
2013-04-22 02:45:00,42.1,32.8,30.73,SE,135,1.3,2.7,69,0.00,,,0.00,WUHU216HW,2013-04-22 06:45:00,
2013-04-22 02:50:00,42.1,33.1,30.72,East,90,1.6,2.7,70,0.00,,,0.00,WUHU216HW,2013-04-22 06:50:00,
2013-04-22 02:55:00,42.3,33.3,30.73,ESE,113,1.1,3.1,70,0.00,,,0.00,WUHU216HW,2013-04-22 06:55:00,
2013-04-22 03:00:00,42.3,33.3,30.73,ESE,113,0.4,3.1,70,0.00,,,0.00,WUHU216HW,2013-04-22 07:00:00,
2013-04-22 03:05:00,42.3,33.3,30.73,East,90,1.3,2.7,70,0.00,,,0.00,WUHU216HW,2013-04-22 07:05:00,
2013-04-22 03:10:00,42.3,33.7,30.72,ENE,68,1.3,2.9,71,0.00,,,0.00,WUHU216HW,2013-04-22 07:10:00,
2013-04-22 03:15:00,42.1,33.5,30.72,ENE,68,2.2,2.9,71,0.00,,,0.00,WUHU216HW,2013-04-22 07:15:00,
2013-04-22 03:20:00,42.1,33.1,30.72,North,0,3.6,3.6,70,0.00,,,0.00,WUHU216HW,2013-04-22 07:20:00,
2013-04-22 03:25:00,42.1,33.5,30.72,North,0,1.1,3.6,71,0.00,,,0.00,WUHU216HW,2013-04-22 07:25:00,
2013-04-22 03:30:00,42.1,33.1,30.72,ESE,113,1.1,2.2,70,0.00,,,0.00,WUHU216HW,2013-04-22 07:30:00,
2013-04-22 03:35:00,42.1,33.5,30.72,ESE,113,1.8,2.5,71,0.00,,,0.00,WUHU216HW,2013-04-22 07:35:00,
2013-04-22 03:40:00,42.1,33.5,30.71,NE,45,0.4,3.8,71,0.00,,,0.00,WUHU216HW,2013-04-22 07:40:00,
2013-04-22 03:45:00,42.1,33.5,30.72,ESE,113,1.1,3.8,71,0.00,,,0.00,WUHU216HW,2013-04-22 07:45:00,
2013-04-22 03:50:00,42.1,33.5,30.71,East,90,0.9,3.8,71,0.00,,,0.00,WUHU216HW,2013-04-22 07:50:00,
2013-04-22 03:55:00,42.1,33.5,30.71,ENE,68,3.4,3.4,71,0.00,,,0.00,WUHU216HW,2013-04-22 07:55:00,
2013-04-22 04:00:00,42.1,33.5,30.71,NNE,23,1.3,3.4,71,0.00,,,0.00,WUHU216HW,2013-04-22 08:00:00,
2013-04-22 04:05:00,42.1,33.5,30.72,East,90,2.0,3.1,71,0.00,,,0.00,WUHU216HW,2013-04-22 08:05:00,
2013-04-22 04:10:00,42.1,33.5,30.72,SE,135,1.8,3.1,71,0.00,,,0.00,WUHU216HW,2013-04-22 08:10:00,
2013-04-22 04:15:00,42.1,33.5,30.72,East,90,2.0,3.1,71,0.00,,,0.00,WUHU216HW,2013-04-22 08:15:00,
2013-04-22 04:20:00,42.1,33.5,30.72,ESE,113,1.6,4.3,71,0.00,,,0.00,WUHU216HW,2013-04-22 08:20:00,
2013-04-22 04:26:00,42.1,33.5,30.72,East,90,0.4,4.3,71,0.00,,,0.00,WUHU216HW,2013-04-22 08:26:00,
2013-04-22 04:31:00,42.1,33.5,30.72,East,90,1.8,3.8,71,0.00,,,0.00,WUHU216HW,2013-04-22 08:31:00,
2013-04-22 04:36:00,42.1,33.5,30.72,ENE,68,1.1,3.8,71,0.00,,,0.00,WUHU216HW,2013-04-22 08:36:00,
2013-04-22 04:41:00,42.1,33.5,30.72,ENE,68,2.7,2.9,71,0.00,,,0.00,WUHU216HW,2013-04-22 08:41:00,
2013-04-22 04:46:00,42.1,33.5,30.72,NNW,338,0.9,3.4,71,0.00,,,0.00,WUHU216HW,2013-04-22 08:46:00,
2013-04-22 04:51:00,42.1,33.5,30.73,NNE,23,0.4,3.4,71,0.00,,,0.00,WUHU216HW,2013-04-22 08:51:00,
2013-04-22 04:56:00,42.1,33.5,30.73,NE,45,0.4,2.9,71,0.00,,,0.00,WUHU216HW,2013-04-22 08:56:00,
2013-04-22 05:01:00,42.1,33.5,30.73,NNE,23,2.2,4.0,71,0.00,,,0.00,WUHU216HW,2013-04-22 09:01:00,
2013-04-22 05:06:00,42.1,33.5,30.73,East,90,1.3,4.0,71,0.00,,,0.00,WUHU216HW,2013-04-22 09:06:00,
2013-04-22 05:11:00,42.1,33.5,30.73,NE,45,2.5,4.3,71,0.00,,,0.00,WUHU216HW,2013-04-22 09:11:00,
2013-04-22 05:16:00,42.1,33.5,30.73,SSE,158,2.2,4.3,71,0.00,,,0.00,WUHU216HW,2013-04-22 09:16:00,
2013-04-22 05:21:00,42.1,33.5,30.73,East,90,4.3,4.3,71,0.00,,,0.00,WUHU216HW,2013-04-22 09:21:00,
2013-04-22 05:26:00,42.1,33.5,30.73,NNE,23,2.9,4.3,71,0.00,,,0.00,WUHU216HW,2013-04-22 09:26:00,
2013-04-22 05:31:00,42.3,33.7,30.72,ENE,68,0.9,4.3,71,0.00,,,0.00,WUHU216HW,2013-04-22 09:31:00,
2013-04-22 05:36:00,42.3,33.7,30.72,NE,45,5.4,5.4,71,0.00,,,0.00,WUHU216HW,2013-04-22 09:36:00,
2013-04-22 05:41:00,42.3,33.7,30.73,ENE,68,1.1,5.4,71,0.00,,,0.00,WUHU216HW,2013-04-22 09:41:00,
2013-04-22 05:46:00,42.3,33.7,30.73,East,90,0.9,5.1,71,0.00,,,0.00,WUHU216HW,2013-04-22 09:46:00,
2013-04-22 05:51:00,42.3,33.7,30.73,East,90,1.1,4.5,71,0.00,,,0.00,WUHU216HW,2013-04-22 09:51:00,
2013-04-22 05:56:00,42.3,33.3,30.72,ENE,68,1.3,4.5,70,0.00,,,0.00,WUHU216HW,2013-04-22 09:56:00,
2013-04-22 06:01:00,42.3,33.3,30.72,NE,45,2.0,4.7,70,0.00,,,0.00,WUHU216HW,2013-04-22 10:01:00,
2013-04-22 06:06:00,42.5,33.5,30.72,ESE,113,2.9,4.7,70,0.00,,,0.00,WUHU216HW,2013-04-22 10:06:00,
2013-04-22 06:11:00,42.5,33.5,30.72,ENE,68,2.9,4.0,70,0.00,,,0.00,WUHU216HW,2013-04-22 10:11:00,
2013-04-22 06:16:00,42.5,33.9,30.72,SE,135,3.6,5.4,71,0.00,,,0.00,WUHU216HW,2013-04-22 10:16:00,
2013-04-22 06:21:00,42.5,33.5,30.72,North,0,1.6,8.5,70,0.00,,,0.00,WUHU216HW,2013-04-22 10:21:00,
2013-04-22 06:26:00,42.5,33.9,30.72,ESE,113,2.0,8.5,71,0.00,,,0.00,WUHU216HW,2013-04-22 10:26:00,
2013-04-22 06:31:00,42.7,33.7,30.72,NNE,23,6.3,6.3,70,0.00,,,0.00,WUHU216HW,2013-04-22 10:31:00,
2013-04-22 06:36:00,42.8,34.2,30.72,NE,45,2.9,6.3,71,0.00,,,0.00,WUHU216HW,2013-04-22 10:36:00,
2013-04-22 06:41:00,42.8,34.2,30.72,NE,45,1.8,6.3,71,0.00,,,0.00,WUHU216HW,2013-04-22 10:41:00,
2013-04-22 06:46:00,42.8,33.8,30.72,ENE,68,2.5,6.0,70,0.00,,,0.00,WUHU216HW,2013-04-22 10:46:00,
2013-04-22 06:51:00,43.2,34.2,30.72,NNE,23,3.4,9.8,70,0.00,,,0.00,WUHU216HW,2013-04-22 10:51:00,
2013-04-22 06:56:00,43.4,34.3,30.73,NE,45,4.9,9.8,70,0.00,,,0.00,WUHU216HW,2013-04-22 10:56:00,
2013-04-22 07:01:00,43.6,34.1,30.73,East,90,4.5,7.6,69,0.00,,,0.00,WUHU216HW,2013-04-22 11:01:00,
2013-04-22 07:06:00,43.7,34.3,30.73,East,90,5.4,7.6,69,0.00,,,0.00,WUHU216HW,2013-04-22 11:06:00,
2013-04-22 07:11:00,43.9,34.5,30.73,ENE,68,3.4,5.4,69,0.00,,,0.00,WUHU216HW,2013-04-22 11:11:00,
2013-04-22 07:16:00,44.1,34.2,30.73,NNE,23,4.3,6.0,68,0.00,,,0.00,WUHU216HW,2013-04-22 11:16:00,
2013-04-22 07:21:00,44.1,34.2,30.73,NE,45,1.1,6.0,68,0.00,,,0.00,WUHU216HW,2013-04-22 11:21:00,
2013-04-22 07:26:00,44.5,34.6,30.73,NE,45,3.1,7.6,68,0.00,,,0.00,WUHU216HW,2013-04-22 11:26:00,
2013-04-22 07:31:00,44.8,34.5,30.72,NE,45,4.5,7.6,67,0.00,,,0.00,WUHU216HW,2013-04-22 11:31:00,
2013-04-22 07:36:00,45.0,34.7,30.72,SSE,158,4.3,7.4,67,0.00,,,0.00,WUHU216HW,2013-04-22 11:36:00,
2013-04-22 07:41:00,45.2,34.8,30.72,NW,315,5.4,7.4,67,0.00,,,0.00,WUHU216HW,2013-04-22 11:41:00,
2013-04-22 07:46:00,45.4,35.0,30.73,ENE,68,1.1,7.4,67,0.00,,,0.00,WUHU216HW,2013-04-22 11:46:00,
2013-04-22 07:51:00,45.5,34.8,30.73,SSE,158,3.6,8.5,66,0.00,,,0.00,WUHU216HW,2013-04-22 11:51:00,
2013-04-22 07:56:00,45.5,34.8,30.73,ENE,68,4.0,8.5,66,0.00,,,0.00,WUHU216HW,2013-04-22 11:56:00,
2013-04-22 08:01:00,45.7,34.6,30.74,NE,45,2.5,4.7,65,0.00,,,0.00,WUHU216HW,2013-04-22 12:01:00,
2013-04-22 08:06:00,45.9,34.7,30.74,East,90,6.3,7.6,65,0.00,,,0.00,WUHU216HW,2013-04-22 12:06:00,
2013-04-22 08:11:00,46.1,34.9,30.74,NNE,23,5.8,7.6,65,0.00,,,0.00,WUHU216HW,2013-04-22 12:11:00,
2013-04-22 08:16:00,46.3,35.1,30.74,ESE,113,5.8,6.5,65,0.00,,,0.00,WUHU216HW,2013-04-22 12:16:00,
2013-04-22 08:21:00,46.4,35.3,30.75,NE,45,4.0,8.3,65,0.00,,,0.00,WUHU216HW,2013-04-22 12:21:00,
2013-04-22 08:26:00,46.4,35.3,30.75,ENE,68,4.7,8.3,65,0.00,,,0.00,WUHU216HW,2013-04-22 12:26:00,
2013-04-22 08:31:00,46.6,35.5,30.75,SE,135,2.9,5.6,65,0.00,,,0.00,WUHU216HW,2013-04-22 12:31:00,
2013-04-22 08:37:00,46.8,35.7,30.75,SE,135,3.4,9.4,65,0.00,,,0.00,WUHU216HW,2013-04-22 12:37:00,
2013-04-22 08:42:00,46.8,35.7,30.75,ESE,113,4.0,9.4,65,0.00,,,0.00,WUHU216HW,2013-04-22 12:42:00,
2013-04-22 08:47:00,47.2,36.0,30.75,ESE,113,1.3,5.1,65,0.00,,,0.00,WUHU216HW,2013-04-22 12:47:00,
2013-04-22 08:52:00,47.5,36.3,30.75,ESE,113,13.4,13.4,65,0.00,,,0.00,WUHU216HW,2013-04-22 12:52:00,
2013-04-22 08:57:00,47.7,36.1,30.75,ENE,68,5.4,13.4,64,0.00,,,0.00,WUHU216HW,2013-04-22 12:57:00,
2013-04-22 09:02:00,47.9,36.3,30.75,SE,135,4.7,13.4,64,0.00,,,0.00,WUHU216HW,2013-04-22 13:02:00,
2013-04-22 09:06:00,47.9,35.9,30.75,ENE,68,6.9,6.9,63,0.00,,,0.00,WUHU216HW,2013-04-22 13:06:00,
2013-04-22 09:07:00,47.9,35.9,30.75,ENE,68,6.9,6.9,63,0.00,,,0.00,WUHU216HW,2013-04-22 13:07:00,
2013-04-22 09:12:00,47.9,35.9,30.75,ENE,68,6.9,6.9,63,0.00,,,0.00,WUHU216HW,2013-04-22 13:12:00,
2013-04-22 09:36:00,48.2,35.8,30.75,ENE,68,4.7,4.7,62,0.00,,,0.00,WUHU216HW,2013-04-22 13:36:00,
2013-04-22 09:41:00,48.2,35.8,30.75,NE,45,5.6,5.6,62,0.00,,,0.00,WUHU216HW,2013-04-22 13:41:00,
2013-04-22 09:47:00,48.1,35.6,30.75,South,180,9.2,9.2,62,0.00,,,0.00,WUHU216HW,2013-04-22 13:47:00,
2013-04-22 09:52:00,47.9,35.5,30.76,ESE,113,2.9,9.2,62,0.00,,,0.00,WUHU216HW,2013-04-22 13:52:00,
2013-04-22 09:57:00,48.1,35.6,30.76,ESE,113,6.3,7.8,62,0.00,,,0.00,WUHU216HW,2013-04-22 13:57:00,
2013-04-22 10:02:00,48.2,36.3,30.76,ESE,113,2.5,7.8,63,0.00,,,0.00,WUHU216HW,2013-04-22 14:02:00,
2013-04-22 10:08:00,48.8,36.4,30.76,East,90,6.7,7.6,62,0.00,,,0.00,WUHU216HW,2013-04-22 14:08:00,
2013-04-22 10:13:00,49.0,36.9,30.76,ENE,68,2.7,7.6,63,0.00,,,0.00,WUHU216HW,2013-04-22 14:13:00,
2013-04-22 10:18:00,49.0,36.9,30.75,ESE,113,4.7,6.7,63,0.00,,,0.00,WUHU216HW,2013-04-22 14:18:00,
2013-04-22 10:23:00,49.1,37.1,30.76,East,90,4.7,4.7,63,0.00,,,0.00,WUHU216HW,2013-04-22 14:23:00,
2013-04-22 10:28:00,49.1,37.1,30.76,SE,135,3.4,4.7,63,0.00,,,0.00,WUHU216HW,2013-04-22 14:28:00,
2013-04-22 10:33:00,49.3,36.8,30.76,East,90,4.0,4.0,62,0.00,,,0.00,WUHU216HW,2013-04-22 14:33:00,
2013-04-22 10:38:00,49.3,37.3,30.77,SE,135,2.9,4.5,63,0.00,,,0.00,WUHU216HW,2013-04-22 14:38:00,
2013-04-22 10:43:00,49.3,36.8,30.77,East,90,7.2,7.2,62,0.00,,,0.00,WUHU216HW,2013-04-22 14:43:00,
2013-04-22 10:48:00,49.5,37.0,30.76,SE,135,4.7,7.2,62,0.00,,,0.00,WUHU216HW,2013-04-22 14:48:00,
2013-04-22 10:53:00,49.5,37.0,30.76,ESE,113,5.6,5.6,62,0.00,,,0.00,WUHU216HW,2013-04-22 14:53:00,
2013-04-22 10:58:00,49.5,37.0,30.76,ESE,113,3.4,5.6,62,0.00,,,0.00,WUHU216HW,2013-04-22 14:58:00,
2013-04-22 11:03:00,49.3,36.8,30.76,ENE,68,5.8,5.8,62,0.00,,,0.00,WUHU216HW,2013-04-22 15:03:00,
2013-04-22 11:08:00,49.3,36.1,30.76,NNE,23,8.9,8.9,60,0.00,,,0.00,WUHU216HW,2013-04-22 15:08:00,
2013-04-22 11:13:00,49.3,36.5,30.76,East,90,5.6,8.9,61,0.00,,,0.00,WUHU216HW,2013-04-22 15:13:00,
2013-04-22 11:18:00,49.3,36.5,30.76,SE,135,4.0,8.9,61,0.00,,,0.00,WUHU216HW,2013-04-22 15:18:00,
2013-04-22 11:23:00,49.9,37.0,30.77,ENE,68,3.1,8.3,61,0.00,,,0.00,WUHU216HW,2013-04-22 15:23:00,
2013-04-22 11:28:00,50.0,37.5,30.77,ESE,113,6.9,6.9,62,0.00,,,0.00,WUHU216HW,2013-04-22 15:28:00,
2013-04-22 11:33:00,49.9,36.5,30.76,SE,135,7.2,7.2,60,0.00,,,0.00,WUHU216HW,2013-04-22 15:33:00,
2013-04-22 11:38:00,49.7,36.8,30.76,SE,135,4.0,7.2,61,0.00,,,0.00,WUHU216HW,2013-04-22 15:38:00,
2013-04-22 11:44:00,49.7,36.8,30.75,NNE,23,5.6,5.6,61,0.00,,,0.00,WUHU216HW,2013-04-22 15:44:00,
2013-04-22 11:49:00,49.7,36.8,30.75,ESE,113,3.4,5.6,61,0.00,,,0.00,WUHU216HW,2013-04-22 15:49:00,
2013-04-22 11:54:00,49.9,37.0,30.75,ESE,113,4.5,6.9,61,0.00,,,0.00,WUHU216HW,2013-04-22 15:54:00,
2013-04-22 11:59:00,50.0,37.1,30.74,ESE,113,5.8,6.9,61,0.00,,,0.00,WUHU216HW,2013-04-22 15:59:00,
2013-04-22 12:04:00,50.2,37.3,30.75,ESE,113,4.3,8.5,61,0.00,,,0.00,WUHU216HW,2013-04-22 16:04:00,
2013-04-22 12:09:00,50.4,37.4,30.75,ESE,113,4.0,8.5,61,0.00,,,0.00,WUHU216HW,2013-04-22 16:09:00,
2013-04-22 12:14:00,50.4,37.1,30.75,East,90,2.5,6.9,60,0.00,,,0.00,WUHU216HW,2013-04-22 16:14:00,
2013-04-22 12:19:00,50.6,37.2,30.75,ENE,68,8.5,8.5,60,0.00,,,0.00,WUHU216HW,2013-04-22 16:19:00,
2013-04-22 12:24:00,50.2,36.9,30.75,SE,135,2.5,8.5,60,0.00,,,0.00,WUHU216HW,2013-04-22 16:24:00,
2013-04-22 12:29:00,50.4,37.4,30.74,NE,45,7.6,7.6,61,0.00,,,0.00,WUHU216HW,2013-04-22 16:29:00,
2013-04-22 12:34:00,50.8,37.4,30.74,NE,45,6.0,7.6,60,0.00,,,0.00,WUHU216HW,2013-04-22 16:34:00,
2013-04-22 12:39:00,50.8,37.4,30.75,SE,135,2.9,7.6,60,0.00,,,0.00,WUHU216HW,2013-04-22 16:39:00,
2013-04-22 12:44:00,50.8,37.4,30.74,ESE,113,6.0,7.6,60,0.00,,,0.00,WUHU216HW,2013-04-22 16:44:00,
2013-04-22 12:49:00,50.6,37.2,30.74,ENE,68,9.8,9.8,60,0.00,,,0.00,WUHU216HW,2013-04-22 16:49:00,
2013-04-22 12:55:00,50.6,37.2,30.74,East,90,2.7,9.8,60,0.00,,,0.00,WUHU216HW,2013-04-22 16:55:00,
2013-04-22 13:00:00,50.6,37.6,30.74,ESE,113,4.5,9.8,61,0.00,,,0.00,WUHU216HW,2013-04-22 17:00:00,
2013-04-22 13:05:00,50.6,37.6,30.73,ESE,113,6.0,6.3,61,0.00,,,0.00,WUHU216HW,2013-04-22 17:05:00,
2013-04-22 13:10:00,50.6,37.6,30.73,ESE,113,1.8,6.3,61,0.00,,,0.00,WUHU216HW,2013-04-22 17:10:00,
2013-04-22 13:15:00,50.8,37.4,30.73,ESE,113,1.8,6.0,60,0.00,,,0.00,WUHU216HW,2013-04-22 17:15:00,
2013-04-22 13:20:00,50.9,37.5,30.72,ESE,113,6.9,6.9,60,0.00,,,0.00,WUHU216HW,2013-04-22 17:20:00,
2013-04-22 13:25:00,51.1,37.3,30.72,ESE,113,2.0,6.9,59,0.00,,,0.00,WUHU216HW,2013-04-22 17:25:00,
2013-04-22 13:30:00,51.1,37.3,30.72,ESE,113,2.0,6.3,59,0.00,,,0.00,WUHU216HW,2013-04-22 17:30:00,
2013-04-22 13:35:00,51.1,37.3,30.72,ESE,113,2.0,2.0,59,0.00,,,0.00,WUHU216HW,2013-04-22 17:35:00,
2013-04-22 13:57:00,51.1,37.7,30.73,SE,135,3.1,3.1,60,0.00,,,0.00,WUHU216HW,2013-04-22 17:57:00,
2013-04-22 14:02:00,51.1,37.7,30.72,ENE,68,4.5,4.5,60,0.00,,,0.00,WUHU216HW,2013-04-22 18:02:00,
2013-04-22 14:07:00,51.3,37.9,30.72,SE,135,9.4,9.4,60,0.00,,,0.00,WUHU216HW,2013-04-22 18:07:00,
2013-04-22 14:12:00,50.9,37.5,30.72,NE,45,2.0,9.4,60,0.00,,,0.00,WUHU216HW,2013-04-22 18:12:00,
2013-04-22 14:17:00,50.8,37.4,30.72,SE,135,5.8,7.4,60,0.00,,,0.00,WUHU216HW,2013-04-22 18:17:00,
2013-04-22 14:22:00,50.8,37.4,30.72,ENE,68,6.9,6.9,60,0.00,,,0.00,WUHU216HW,2013-04-22 18:22:00,
2013-04-22 14:27:00,50.8,37.8,30.72,NE,45,11.6,11.6,61,0.00,,,0.00,WUHU216HW,2013-04-22 18:27:00,
2013-04-22 14:32:00,50.8,37.4,30.71,NNE,23,7.4,11.6,60,0.00,,,0.00,WUHU216HW,2013-04-22 18:32:00,
2013-04-22 14:37:00,50.8,37.4,30.71,East,90,3.1,11.6,60,0.00,,,0.00,WUHU216HW,2013-04-22 18:37:00,
2013-04-22 14:42:00,50.8,37.4,30.72,East,90,5.1,7.4,60,0.00,,,0.00,WUHU216HW,2013-04-22 18:42:00,
2013-04-22 14:47:00,50.8,37.4,30.71,East,90,5.4,5.4,60,0.00,,,0.00,WUHU216HW,2013-04-22 18:47:00,
2013-04-22 14:52:00,50.9,37.5,30.71,SSE,158,4.9,5.4,60,0.00,,,0.00,WUHU216HW,2013-04-22 18:52:00,
2013-04-22 14:57:00,50.9,37.5,30.71,East,90,2.5,4.9,60,0.00,,,0.00,WUHU216HW,2013-04-22 18:57:00,
2013-04-22 15:02:00,50.9,37.5,30.71,ENE,68,6.3,7.4,60,0.00,,,0.00,WUHU216HW,2013-04-22 19:02:00,
2013-04-22 15:07:00,51.1,37.7,30.71,East,90,3.4,7.4,60,0.00,,,0.00,WUHU216HW,2013-04-22 19:07:00,
2013-04-22 15:12:00,51.1,37.7,30.70,SE,135,7.6,7.6,60,0.00,,,0.00,WUHU216HW,2013-04-22 19:12:00,
2013-04-22 15:17:00,51.1,38.1,30.70,North,0,6.3,7.6,61,0.00,,,0.00,WUHU216HW,2013-04-22 19:17:00,
2013-04-22 15:22:00,51.3,38.3,30.69,ENE,68,8.1,8.1,61,0.00,,,0.00,WUHU216HW,2013-04-22 19:22:00,
2013-04-22 15:27:00,51.5,38.4,30.69,ESE,113,6.9,8.1,61,0.00,,,0.00,WUHU216HW,2013-04-22 19:27:00,
2013-04-22 15:32:00,51.7,38.2,30.69,East,90,6.3,8.7,60,0.00,,,0.00,WUHU216HW,2013-04-22 19:32:00,
2013-04-22 15:37:00,51.5,38.0,30.69,North,0,7.4,8.7,60,0.00,,,0.00,WUHU216HW,2013-04-22 19:37:00,
2013-04-22 15:42:00,51.5,38.0,30.69,East,90,5.6,8.7,60,0.00,,,0.00,WUHU216HW,2013-04-22 19:42:00,
2013-04-22 15:47:00,51.7,38.6,30.68,NNE,23,12.3,12.3,61,0.00,,,0.00,WUHU216HW,2013-04-22 19:47:00,
2013-04-22 15:52:00,51.5,38.4,30.68,NE,45,5.4,12.3,61,0.00,,,0.00,WUHU216HW,2013-04-22 19:52:00,
2013-04-22 15:57:00,51.3,38.3,30.68,ESE,113,1.8,12.3,61,0.00,,,0.00,WUHU216HW,2013-04-22 19:57:00,
2013-04-22 16:02:00,51.1,38.1,30.68,NNE,23,5.8,5.8,61,0.00,,,0.00,WUHU216HW,2013-04-22 20:02:00,
2013-04-22 16:07:00,51.3,38.7,30.67,NE,45,5.4,5.8,62,0.00,,,0.00,WUHU216HW,2013-04-22 20:07:00,
2013-04-22 16:12:00,51.3,38.7,30.67,ENE,68,4.7,6.7,62,0.00,,,0.00,WUHU216HW,2013-04-22 20:12:00,
2013-04-22 16:17:00,51.5,38.4,30.67,ESE,113,7.8,7.8,61,0.00,,,0.00,WUHU216HW,2013-04-22 20:17:00,
2013-04-22 16:22:00,51.5,38.4,30.67,South,180,9.2,9.2,61,0.00,,,0.00,WUHU216HW,2013-04-22 20:22:00,
2013-04-22 16:27:00,51.5,38.4,30.67,East,90,4.7,9.2,61,0.00,,,0.00,WUHU216HW,2013-04-22 20:27:00,
2013-04-22 16:32:00,51.7,38.6,30.67,East,90,2.9,9.2,61,0.00,,,0.00,WUHU216HW,2013-04-22 20:32:00,
2013-04-22 16:37:00,51.7,38.6,30.67,North,0,9.4,9.4,61,0.00,,,0.00,WUHU216HW,2013-04-22 20:37:00,
2013-04-22 16:44:00,51.5,38.4,30.67,East,90,4.9,9.4,61,0.00,,,0.00,WUHU216HW,2013-04-22 20:44:00,
2013-04-22 16:49:00,51.7,39.0,30.67,ESE,113,7.4,7.4,62,0.00,,,0.00,WUHU216HW,2013-04-22 20:49:00,
2013-04-22 16:54:00,51.8,39.2,30.67,ESE,113,7.6,7.6,62,0.00,,,0.00,WUHU216HW,2013-04-22 20:54:00,
2013-04-22 16:59:00,52.2,39.5,30.66,East,90,4.5,7.6,62,0.00,,,0.00,WUHU216HW,2013-04-22 20:59:00,
2013-04-22 17:05:00,52.2,39.2,30.67,East,90,6.5,8.7,61,0.00,,,0.00,WUHU216HW,2013-04-22 21:05:00,
2013-04-22 17:10:00,52.2,39.2,30.67,ENE,68,5.4,8.7,61,0.00,,,0.00,WUHU216HW,2013-04-22 21:10:00,
2013-04-22 17:15:00,52.0,39.0,30.66,ESE,113,2.7,5.4,61,0.00,,,0.00,WUHU216HW,2013-04-22 21:15:00,
2013-04-22 17:20:00,52.6,39.5,30.66,SE,135,4.0,6.9,61,0.00,,,0.00,WUHU216HW,2013-04-22 21:20:00,
2013-04-22 17:25:00,52.9,39.8,30.66,ESE,113,3.6,6.9,61,0.00,,,0.00,WUHU216HW,2013-04-22 21:25:00,
2013-04-22 17:30:00,52.9,39.8,30.66,ENE,68,4.5,6.5,61,0.00,,,0.00,WUHU216HW,2013-04-22 21:30:00,
2013-04-22 17:35:00,52.6,39.5,30.66,NNE,23,2.7,7.8,61,0.00,,,0.00,WUHU216HW,2013-04-22 21:35:00,
2013-04-22 17:40:00,51.8,38.8,30.66,East,90,3.1,7.8,61,0.00,,,0.00,WUHU216HW,2013-04-22 21:40:00,
2013-04-22 17:45:00,51.5,38.4,30.66,NE,45,3.6,6.0,61,0.00,,,0.00,WUHU216HW,2013-04-22 21:45:00,
2013-04-22 17:50:00,51.3,38.7,30.66,NNW,338,9.8,9.8,62,0.00,,,0.00,WUHU216HW,2013-04-22 21:50:00,
2013-04-22 17:55:00,50.8,38.2,30.65,NE,45,5.6,9.8,62,0.00,,,0.00,WUHU216HW,2013-04-22 21:55:00,
2013-04-22 18:00:00,50.2,38.1,30.65,ENE,68,4.7,9.8,63,0.00,,,0.00,WUHU216HW,2013-04-22 22:00:00,
2013-04-22 18:05:00,50.0,38.4,30.65,East,90,7.8,7.8,64,0.00,,,0.00,WUHU216HW,2013-04-22 22:05:00,
2013-04-22 18:10:00,49.9,38.2,30.65,NNE,23,3.8,7.8,64,0.00,,,0.00,WUHU216HW,2013-04-22 22:10:00,
2013-04-22 18:15:00,49.5,37.8,30.65,NE,45,2.9,7.8,64,0.00,,,0.00,WUHU216HW,2013-04-22 22:15:00,
2013-04-22 18:20:00,49.3,37.6,30.64,East,90,3.8,4.7,64,0.00,,,0.00,WUHU216HW,2013-04-22 22:20:00,
2013-04-22 18:25:00,49.3,37.6,30.64,East,90,2.9,5.6,64,0.00,,,0.00,WUHU216HW,2013-04-22 22:25:00,
2013-04-22 18:30:00,49.5,38.2,30.64,ENE,68,6.3,6.3,65,0.00,,,0.00,WUHU216HW,2013-04-22 22:30:00,
2013-04-22 18:35:00,49.3,38.4,30.64,NE,45,4.5,6.3,66,0.00,,,0.00,WUHU216HW,2013-04-22 22:35:00,
2013-04-22 18:40:00,49.1,38.3,30.64,NNE,23,8.5,8.5,66,0.00,,,0.00,WUHU216HW,2013-04-22 22:40:00,
2013-04-22 18:45:00,48.8,38.3,30.64,ESE,113,2.2,8.5,67,0.00,,,0.00,WUHU216HW,2013-04-22 22:45:00,
2013-04-22 18:50:00,48.2,38.2,30.64,ESE,113,5.4,8.7,68,0.00,,,0.00,WUHU216HW,2013-04-22 22:50:00,
2013-04-22 18:55:00,48.2,38.2,30.64,NE,45,6.5,8.7,68,0.00,,,0.00,WUHU216HW,2013-04-22 22:55:00,
2013-04-22 19:01:00,47.9,38.5,30.64,SE,135,4.9,9.6,70,0.00,,,0.00,WUHU216HW,2013-04-22 23:01:00,
2013-04-22 19:06:00,47.9,38.5,30.64,SE,135,3.1,9.6,70,0.00,,,0.00,WUHU216HW,2013-04-22 23:06:00,
2013-04-22 19:11:00,47.7,38.4,30.64,SE,135,6.5,7.6,70,0.00,,,0.00,WUHU216HW,2013-04-22 23:11:00,
2013-04-22 19:16:00,47.3,38.8,30.64,North,0,5.4,9.8,72,0.00,,,0.00,WUHU216HW,2013-04-22 23:16:00,
2013-04-22 19:21:00,47.3,38.8,30.64,North,0,2.9,9.8,72,0.00,,,0.00,WUHU216HW,2013-04-22 23:21:00,
2013-04-22 19:26:00,47.2,38.6,30.64,North,0,2.9,7.8,72,0.00,,,0.00,WUHU216HW,2013-04-22 23:26:00,
2013-04-22 19:31:00,47.0,38.4,30.64,ESE,113,1.8,7.4,72,0.00,,,0.00,WUHU216HW,2013-04-22 23:31:00,
2013-04-22 19:36:00,47.0,38.8,30.64,NE,45,9.2,9.2,73,0.00,,,0.00,WUHU216HW,2013-04-22 23:36:00,
2013-04-22 19:41:00,46.8,38.6,30.64,East,90,4.0,9.2,73,0.00,,,0.00,WUHU216HW,2013-04-22 23:41:00,
2013-04-22 19:46:00,46.8,38.6,30.64,ESE,113,3.4,9.2,73,0.00,,,0.00,WUHU216HW,2013-04-22 23:46:00,
2013-04-22 19:51:00,46.8,39.0,30.63,SE,135,6.3,8.7,74,0.00,,,0.00,WUHU216HW,2013-04-22 23:51:00,
2013-04-22 19:56:00,46.6,38.8,30.63,ESE,113,9.8,9.8,74,0.00,,,0.00,WUHU216HW,2013-04-22 23:56:00,
2013-04-22 20:01:00,46.4,39.3,30.63,NE,45,5.4,10.5,76,0.00,,,0.00,WUHU216HW,2013-04-23 00:01:00,
2013-04-22 20:06:00,46.4,39.0,30.63,East,90,4.3,10.5,75,0.00,,,0.00,WUHU216HW,2013-04-23 00:06:00,
2013-04-22 20:11:00,46.4,39.0,30.63,NE,45,1.1,8.1,75,0.00,,,0.00,WUHU216HW,2013-04-23 00:11:00,
2013-04-22 20:16:00,46.4,39.0,30.63,East,90,3.8,10.5,75,0.00,,,0.00,WUHU216HW,2013-04-23 00:16:00,
2013-04-22 20:21:00,46.3,39.2,30.63,ENE,68,5.6,10.5,76,0.00,,,0.00,WUHU216HW,2013-04-23 00:21:00,
2013-04-22 20:26:00,46.3,39.2,30.63,ESE,113,4.7,9.8,76,0.00,,,0.00,WUHU216HW,2013-04-23 00:26:00,
2013-04-22 20:31:00,46.3,39.2,30.63,NNE,23,4.7,9.8,76,0.00,,,0.00,WUHU216HW,2013-04-23 00:31:00,
2013-04-22 20:36:00,46.3,39.2,30.63,SE,135,3.6,6.9,76,0.00,,,0.00,WUHU216HW,2013-04-23 00:36:00,
2013-04-22 20:42:00,46.3,39.2,30.63,East,90,9.8,9.8,76,0.00,,,0.00,WUHU216HW,2013-04-23 00:42:00,
2013-04-22 20:47:00,46.1,39.0,30.63,ESE,113,2.5,9.8,76,0.00,,,0.00,WUHU216HW,2013-04-23 00:47:00,
2013-04-22 20:52:00,46.1,39.3,30.64,East,90,3.4,5.4,77,0.00,,,0.00,WUHU216HW,2013-04-23 00:52:00,
2013-04-22 20:57:00,46.1,39.0,30.64,ESE,113,6.9,7.6,76,0.00,,,0.00,WUHU216HW,2013-04-23 00:57:00,
2013-04-22 21:02:00,46.1,39.0,30.64,East,90,2.0,8.5,76,0.00,,,0.00,WUHU216HW,2013-04-23 01:02:00,
2013-04-22 21:07:00,45.9,39.2,30.64,NNE,23,2.2,8.5,77,0.00,,,0.00,WUHU216HW,2013-04-23 01:07:00,
2013-04-22 21:12:00,45.9,39.2,30.64,North,0,4.7,8.5,77,0.00,,,0.00,WUHU216HW,2013-04-23 01:12:00,
2013-04-22 21:17:00,45.9,39.2,30.64,SE,135,3.6,8.5,77,0.00,,,0.00,WUHU216HW,2013-04-23 01:17:00,
2013-04-22 21:22:00,45.9,39.2,30.63,NE,45,6.3,6.3,77,0.00,,,0.00,WUHU216HW,2013-04-23 01:22:00,
2013-04-22 21:27:00,45.7,39.0,30.63,ESE,113,6.9,6.9,77,0.00,,,0.00,WUHU216HW,2013-04-23 01:27:00,
2013-04-22 21:32:00,45.7,39.0,30.63,ENE,68,2.2,8.9,77,0.00,,,0.00,WUHU216HW,2013-04-23 01:32:00,
2013-04-22 21:37:00,45.7,39.0,30.63,East,90,6.0,8.9,77,0.00,,,0.00,WUHU216HW,2013-04-23 01:37:00,
2013-04-22 21:42:00,45.7,39.2,30.63,ESE,113,4.7,9.2,78,0.00,,,0.00,WUHU216HW,2013-04-23 01:42:00,
2013-04-22 21:47:00,45.7,39.2,30.63,ESE,113,10.1,10.1,78,0.00,,,0.00,WUHU216HW,2013-04-23 01:47:00,
2013-04-22 21:52:00,45.5,39.1,30.63,ENE,68,5.8,10.1,78,0.00,,,0.00,WUHU216HW,2013-04-23 01:52:00,
2013-04-22 21:57:00,45.5,38.8,30.63,ESE,113,6.3,6.9,77,0.00,,,0.00,WUHU216HW,2013-04-23 01:57:00,
2013-04-22 22:02:00,45.5,39.1,30.63,SE,135,3.6,7.6,78,0.00,,,0.00,WUHU216HW,2013-04-23 02:02:00,
2013-04-22 22:07:00,45.5,39.1,30.63,North,0,1.1,7.6,78,0.00,,,0.00,WUHU216HW,2013-04-23 02:07:00,
2013-04-22 22:12:00,45.5,39.1,30.63,North,0,1.6,3.6,78,0.00,,,0.00,WUHU216HW,2013-04-23 02:12:00,
2013-04-22 22:17:00,45.4,38.6,30.63,SSW,203,2.5,3.4,77,0.00,,,0.00,WUHU216HW,2013-04-23 02:17:00,
2013-04-22 22:22:00,45.4,38.6,30.62,East,90,5.1,9.2,77,0.00,,,0.00,WUHU216HW,2013-04-23 02:22:00,
2013-04-22 22:27:00,45.4,38.6,30.62,ENE,68,4.7,9.2,77,0.00,,,0.00,WUHU216HW,2013-04-23 02:27:00,
2013-04-22 22:32:00,45.4,38.6,30.62,SE,135,4.3,5.8,77,0.00,,,0.00,WUHU216HW,2013-04-23 02:32:00,
2013-04-22 22:37:00,45.4,38.6,30.62,North,0,2.5,6.3,77,0.00,,,0.00,WUHU216HW,2013-04-23 02:37:00,
2013-04-22 22:43:00,45.4,38.6,30.62,SE,135,3.4,6.3,77,0.00,,,0.00,WUHU216HW,2013-04-23 02:43:00,
2013-04-22 22:48:00,45.4,38.6,30.62,ESE,113,4.7,7.8,77,0.00,,,0.00,WUHU216HW,2013-04-23 02:48:00,
2013-04-22 22:53:00,45.2,38.4,30.62,NNE,23,3.6,7.8,77,0.00,,,0.00,WUHU216HW,2013-04-23 02:53:00,
2013-04-22 22:58:00,45.2,38.1,30.61,East,90,3.4,6.5,76,0.00,,,0.00,WUHU216HW,2013-04-23 02:58:00,
2013-04-22 23:03:00,45.2,38.1,30.61,SSE,158,2.5,6.3,76,0.00,,,0.00,WUHU216HW,2013-04-23 03:03:00,
2013-04-22 23:08:00,45.2,38.1,30.60,East,90,7.6,8.5,76,0.00,,,0.00,WUHU216HW,2013-04-23 03:08:00,
2013-04-22 23:13:00,45.2,38.1,30.60,ENE,68,4.9,8.5,76,0.00,,,0.00,WUHU216HW,2013-04-23 03:13:00,
2013-04-22 23:18:00,45.0,37.9,30.60,ESE,113,6.3,7.6,76,0.00,,,0.00,WUHU216HW,2013-04-23 03:18:00,
2013-04-22 23:23:00,45.0,37.9,30.60,East,90,6.7,7.6,76,0.00,,,0.00,WUHU216HW,2013-04-23 03:23:00,
2013-04-22 23:28:00,45.0,37.9,30.60,ESE,113,2.5,7.2,76,0.00,,,0.00,WUHU216HW,2013-04-23 03:28:00,
2013-04-22 23:33:00,45.0,37.9,30.60,NNE,23,6.9,7.4,76,0.00,,,0.00,WUHU216HW,2013-04-23 03:33:00,
2013-04-22 23:38:00,45.0,37.9,30.60,East,90,3.4,7.4,76,0.00,,,0.00,WUHU216HW,2013-04-23 03:38:00,
2013-04-22 23:43:00,45.0,37.9,30.60,East,90,6.0,8.9,76,0.00,,,0.00,WUHU216HW,2013-04-23 03:43:00,
2013-04-22 23:48:00,45.0,37.9,30.60,NNE,23,3.8,11.2,76,0.00,,,0.00,WUHU216HW,2013-04-23 03:48:00,
2013-04-22 23:53:00,45.0,37.9,30.59,East,90,4.0,11.2,76,0.00,,,0.00,WUHU216HW,2013-04-23 03:53:00,
2013-04-22 23:58:00,45.0,37.5,30.60,SE,135,2.5,9.4,75,0.00,,,0.00,WUHU216HW,2013-04-23 03:58:00,